DW8295 Weather Reports


Display with metric or nautical units.
time (UTC)temp
F
wind
direction
speed
MPH
gust
MPH
rain 1hr
in
rain 24hr
in
rain mn
in
humidity
%
barometer
mb
20260906034415 62 5 0.0 1.0 0.00 0.00 0.00 81 1012.4
20260906033908 62 5 0.0 1.0 0.00 0.00 0.00 80 1012.4
20260906033401 63 5 0.0 0.0 0.00 0.00 0.00 80 1012.4
20260906032856 63 5 0.0 1.0 0.00 0.00 0.00 80 1012.4
20260906032608 63 5 0.0 3.0 0.00 0.00 0.00 79 1012.3
20260906031843 63 5 0.0 3.0 0.00 0.00 0.00 79 1012.3
20260906031338 63 335 0.0 1.0 0.00 0.00 0.00 79 1012.2
20260906030833 63 335 0.0 1.0 0.00 0.00 0.00 79 1012.1
20260906030327 63 335 0.0 1.0 0.00 0.00 0.00 79 1012.1
20260906030041 63 335 0.0 1.0 0.00 0.00 0.00 78 1012.1
20260906025313 63 335 0.0 1.0 0.00 0.00 0.00 78 1012.1
20260906025031 63 335 0.0 4.0 0.00 0.00 0.00 78 1012.2
20260906024302 63 334 0.0 4.0 0.00 0.00 0.00 78 1012.1
20260906023800 63 349 0.0 1.0 0.00 0.00 0.00 78 1012.2
20260906023300 63 349 0.0 1.0 0.00 0.00 0.00 78 1012.1
20260906023020 63 349 0.0 1.0 0.00 0.00 0.00 78 1012.1
20260906022256 63 349 0.0 1.0 0.00 0.00 0.00 79 1012.0
20260906021755 63 349 0.0 2.0 0.00 0.00 0.00 79 1012.1
20260906021253 63 349 0.0 3.0 0.00 0.00 0.00 80 1012.0
20260906020750 63 348 0.0 3.0 0.00 0.00 0.00 80 1012.0
20260906020250 63 21 0.0 3.0 0.00 0.00 0.00 81 1011.8
20260906015750 63 21 0.0 3.0 0.00 0.00 0.00 80 1011.9
20260906015248 63 19 0.0 3.0 0.00 0.00 0.00 81 1012.0
20260906014749 62 19 0.0 3.0 0.00 0.00 0.00 81 1012.1
20260906014509 62 20 0.0 3.0 0.00 0.00 0.00 82 1012.1
20260906013749 62 21 0.0 3.0 0.00 0.00 0.00 82 1012.1
20260906013249 63 22 0.0 0.0 0.00 0.00 0.00 83 1012.2
20260906013006 63 22 0.0 0.0 0.00 0.00 0.00 82 1012.1
20260906012509 63 22 0.0 0.0 0.00 0.00 0.00 81 1012.0
20260906011749 64 22 0.0 0.0 0.00 0.00 0.00 80 1012.0
20260906011510 64 22 0.0 0.0 0.00 0.00 0.00 79 1011.9
20260906010748 64 22 0.0 1.0 0.00 0.00 0.00 79 1011.9
20260906010249 65 22 0.0 1.0 0.00 0.00 0.00 78 1011.9
20260906005748 65 22 0.0 1.0 0.00 0.00 0.00 77 1011.8
20260906005249 65 22 0.0 1.0 0.00 0.00 0.00 78 1011.8
20260906004749 65 22 0.0 0.0 0.00 0.00 0.00 78 1011.8
20260906004250 65 22 0.0 0.0 0.00 0.00 0.00 78 1011.8
20260906004019 65 22 0.0 0.0 0.00 0.00 0.00 78 1011.7
20260906003512 65 22 0.0 0.0 0.00 0.00 0.00 77 1011.7
20260906002750 66 22 0.0 0.0 0.00 0.00 0.00 77 1011.7
20260906002250 66 22 0.0 1.0 0.00 0.00 0.00 77 1011.8
20260906002004 66 22 0.0 2.0 0.00 0.00 0.00 77 1011.8
20260906001246 66 22 0.0 2.0 0.00 0.00 0.00 77 1011.7
20260906000748 65 22 0.0 2.0 0.00 0.00 0.00 77 1011.7
20260906000248 65 22 0.0 2.0 0.00 0.00 0.00 78 1011.7
20260905235746 64 22 0.0 0.0 0.00 0.00 0.00 79 1011.7
20260905235246 64 22 0.0 1.0 0.00 0.00 0.00 80 1011.6
20260905234746 64 22 0.0 1.0 0.00 0.00 0.00 81 1011.6
20260905234246 63 49 0.0 0.0 0.00 0.00 0.00 82 1011.4
20260905233747 63 49 0.0 0.0 0.00 0.00 0.00 84 1011.3
20260905233242 63 49 0.0 0.0 0.00 0.00 0.00 84 1011.4
20260905232742 64 49 0.0 0.0 0.00 0.00 0.00 83 1011.4
20260905232243 64 49 0.0 0.0 0.00 0.00 0.00 82 1011.3
20260905231742 64 49 0.0 0.0 0.00 0.00 0.00 81 1011.2
20260905231243 65 49 0.0 0.0 0.00 0.00 0.00 80 1011.1
20260905230742 66 49 0.0 0.0 0.00 0.00 0.00 79 1011.1
20260905230242 66 49 0.0 0.0 0.00 0.00 0.00 78 1011.0
20260905225742 66 49 0.0 0.0 0.00 0.00 0.00 77 1011.1
20260905225736 67 49 0.0 1.0 0.00 0.00 0.00 76 1011.1
20260905224738 67 49 0.0 1.0 0.00 0.00 0.00 75 1011.0
20260905224238 67 49 0.0 0.0 0.00 0.00 0.00 74 1010.9
20260905223738 67 49 0.0 0.0 0.00 0.00 0.00 73 1010.9
20260905223239 68 49 0.0 0.0 0.00 0.00 0.00 72 1010.8
20260905223001 68 49 0.0 1.0 0.00 0.00 0.00 71 1010.8
20260905222505 68 49 0.0 1.0 0.00 0.00 0.00 71 1010.8
20260905221740 69 49 0.0 1.0 0.00 0.00 0.00 70 1010.8
20260905221718 69 49 0.0 1.0 0.00 0.00 0.00 69 1010.7
20260905220738 69 49 0.0 2.0 0.00 0.00 0.00 70 1010.6
20260905220234 69 49 0.0 2.0 0.00 0.00 0.00 69 1010.6
20260905215735 69 71 0.0 1.0 0.00 0.00 0.00 69 1010.6
20260905215234 69 71 0.0 1.0 0.00 0.00 0.00 69 1010.5
20260905214952 69 63 0.0 2.0 0.00 0.00 0.00 70 1010.4
20260905214235 68 69 0.0 2.0 0.00 0.00 0.00 71 1010.5
20260905214001 69 69 0.0 1.0 0.00 0.00 0.00 72 1010.4
20260905213234 69 69 0.0 2.0 0.00 0.00 0.00 71 1010.4
20260905212734 69 69 0.0 2.0 0.00 0.00 0.00 70 1010.3
20260905212458 70 69 0.0 3.0 0.00 0.00 0.00 68 1010.3
20260905211734 70 69 0.0 3.0 0.00 0.00 0.00 67 1010.2
20260905211234 70 67 0.0 3.0 0.00 0.00 0.00 68 1010.1
20260905210734 69 67 0.0 3.0 0.00 0.00 0.00 70 1010.1
20260905210234 69 65 0.0 3.0 0.00 0.00 0.00 72 1010.0
20260905205958 69 66 0.0 1.0 0.00 0.00 0.00 73 1010.0
20260905205718 69 66 0.0 1.0 0.00 0.00 0.00 73 1010.0
20260905204734 69 68 0.0 1.0 0.00 0.00 0.00 72 1010.0
20260905204234 69 68 0.0 1.0 0.00 0.00 0.00 72 1010.0
20260905203733 69 68 0.0 1.0 0.00 0.00 0.00 71 1010.0
20260905203227 70 68 0.0 2.0 0.00 0.00 0.00 70 1009.9
20260905202722 70 68 0.0 2.0 0.00 0.00 0.00 70 1009.9
20260905202216 70 68 0.0 2.0 0.00 0.00 0.00 69 1009.8
20260905201935 70 67 0.0 2.0 0.00 0.00 0.00 70 1009.8
20260905201430 70 67 0.0 2.0 0.00 0.00 0.00 71 1009.7
20260905200657 69 67 0.0 1.0 0.00 0.00 0.00 71 1009.7
20260905200158 69 67 0.0 0.0 0.00 0.00 0.00 72 1009.7
20260905195658 70 67 0.0 1.0 0.00 0.00 0.00 72 1009.7
20260905195158 70 67 1.0 4.0 0.00 0.00 0.00 70 1009.8
20260905194657 71 67 1.0 4.0 0.00 0.00 0.00 69 1009.8
20260905194158 71 57 0.0 2.0 0.00 0.00 0.00 70 1009.8
20260905193656 71 56 1.0 3.0 0.00 0.00 0.00 69 1009.8
20260905193154 71 56 1.0 3.0 0.00 0.00 0.00 67 1009.8
20260905192652 72 55 1.0 4.0 0.00 0.00 0.00 66 1009.7
20260905192151 72 53 1.0 4.0 0.00 0.00 0.00 67 1009.7
20260905191652 72 67 1.0 3.0 0.00 0.00 0.00 65 1009.6
20260905191418 72 66 1.0 3.0 0.00 0.00 0.00 67 1009.6
20260905190653 72 59 1.0 5.0 0.00 0.00 0.00 68 1009.6
20260905190150 71 58 1.0 5.0 0.00 0.00 0.00 69 1009.6
20260905185651 71 57 1.0 4.0 0.00 0.00 0.00 69 1009.6
20260905185150 71 53 1.0 4.0 0.00 0.00 0.00 69 1009.6
20260905184648 71 41 1.0 3.0 0.00 0.00 0.00 70 1009.6
20260905184146 71 40 2.0 5.0 0.00 0.00 0.00 73 1009.6
20260905183646 70 67 2.0 5.0 0.00 0.00 0.00 72 1009.6
20260905183144 70 77 2.0 4.0 0.00 0.00 0.00 73 1009.6
20260905182638 70 67 1.0 4.0 0.00 0.00 0.00 74 1009.7
20260905182352 70 22 1.0 4.0 0.00 0.00 0.00 75 1009.6
20260905181633 69 64 1.0 4.0 0.00 0.00 0.00 77 1009.7
20260905181130 70 59 1.0 5.0 0.00 0.00 0.00 75 1009.7
20260905180631 70 59 1.0 5.0 0.00 0.00 0.00 75 1009.7
20260905180129 70 22 1.0 6.0 0.00 0.00 0.00 77 1009.7
20260905175627 70 0 1.0 9.0 0.00 0.00 0.00 76 1009.7
20260905175126 70 50 2.0 9.0 0.00 0.00 0.00 75 1009.6
20260905174849 70 92 1.0 8.0 0.00 0.00 0.00 79 1009.7
20260905174126 69 42 1.0 4.0 0.00 0.00 0.00 81 1009.7
20260905173844 69 40 1.0 4.0 0.00 0.00 0.00 84 1009.7
20260905173126 69 40 1.0 4.0 0.00 0.00 0.00 84 1009.7
20260905172626 68 34 0.0 3.0 0.00 0.00 0.00 87 1009.7
20260905172127 67 12 0.0 2.0 0.00 0.00 0.00 87 1009.7
20260905171628 67 12 0.0 2.0 0.00 0.00 0.00 86 1009.8
20260905171126 67 12 0.0 2.0 0.00 0.00 0.00 86 1009.7
20260905170624 67 12 0.0 2.0 0.00 0.00 0.00 87 1009.8
20260905170124 67 11 1.0 4.0 0.00 0.00 0.00 87 1009.8
20260905165624 67 311 0.0 4.0 0.00 0.00 0.00 88 1009.8
20260905165348 66 61 1.0 5.0 0.00 0.00 0.00 88 1009.7
20260905164841 67 64 1.0 5.0 0.00 0.00 0.00 88 1009.9
20260905164111 67 337 0.0 2.0 0.00 0.00 0.00 90 1009.9
20260905163605 66 335 0.0 4.0 0.00 0.00 0.00 91 1009.9
20260905163102 66 335 1.0 4.0 0.00 0.00 0.00 91 1009.6
20260905162820 65 336 0.0 3.0 0.00 0.00 0.00 91 1009.7
20260905162101 65 335 0.0 1.0 0.00 0.00 0.00 90 1010.0
20260905161514 65 335 0.0 2.0 0.00 0.00 0.00 90 1010.0
20260905161008 65 335 1.0 5.0 0.00 0.00 0.00 88 1010.0
20260905160502 66 344 1.0 5.0 0.00 0.00 0.00 87 1010.1
20260905160220 67 45 2.0 9.0 0.00 0.00 0.00 84 1010.1
20260905155451 68 58 1.0 9.0 0.00 0.00 0.00 80 1010.0
20260905155159 70 28 1.0 3.0 0.00 0.00 0.00 77 1009.6
20260905155038 69 327 1.0 4.0 0.00 0.00 0.00 77 1009.8
20260905153933 70 17 1.0 4.0 0.00 0.00 0.00 77 1009.6
20260905153646 70 16 1.0 4.0 0.00 0.00 0.00 76 1009.6
20260905152921 70 348 2.0 10.0 0.00 0.00 0.00 77 1009.6
20260905152414 69 326 2.0 10.0 0.00 0.00 0.00 80 1009.6
20260905151909 68 335 1.0 8.0 0.00 0.00 0.00 81 1009.6
20260905151402 68 321 0.0 4.0 0.00 0.00 0.00 81 1009.7
20260905150856 68 9 0.0 4.0 0.00 0.00 0.00 82 1009.8
20260905150351 68 5 0.0 4.0 0.00 0.00 0.00 81 1009.7
20260905145845 68 34 1.0 3.0 0.00 0.00 0.00 81 1009.7
20260905145339 69 57 1.0 3.0 0.00 0.00 0.00 80 1009.7
20260905144833 68 48 1.0 4.0 0.00 0.00 0.00 82 1009.7
20260905144328 68 44 1.0 8.0 0.00 0.00 0.00 82 1009.6
20260905144045 68 55 1.0 8.0 0.00 0.00 0.00 82 1009.5
20260905143316 67 38 1.0 5.0 0.00 0.00 0.00 83 1009.5
20260905142810 67 342 1.0 5.0 0.00 0.00 0.00 83 1009.5
20260905142305 67 355 1.0 2.0 0.00 0.00 0.00 83 1009.6
20260905142249 67 53 1.0 4.0 0.00 0.00 0.00 83 1009.4
20260905141737 67 57 2.0 5.0 0.00 0.00 0.00 83 1009.4
20260905140745 67 61 2.0 10.0 0.00 0.00 0.00 82 1009.3
20260905140239 67 47 2.0 10.0 0.00 0.00 0.00 82 1009.2
20260905135734 67 57 2.0 10.0 0.00 0.00 0.00 83 1009.2
20260905135227 67 331 3.0 12.0 0.00 0.00 0.00 83 1009.2
20260905134721 67 21 2.0 12.0 0.00 0.00 0.00 83 1009.1
20260905134216 67 35 2.0 14.0 0.00 0.00 0.00 82 1009.1
20260905133709 67 323 4.0 14.0 0.00 0.00 0.00 82 1009.0
20260905133426 67 343 4.0 13.0 0.00 0.00 0.00 82 1008.9
20260905132656 67 339 3.0 13.0 0.00 0.00 0.00 82 1008.9
20260905132153 67 312 3.0 12.0 0.00 0.00 0.00 82 1008.8
20260905131654 67 17 3.0 11.0 0.00 0.00 0.00 82 1008.7
20260905131153 67 346 3.0 11.0 0.00 0.00 0.00 82 1008.5
20260905130655 67 0 3.0 11.0 0.00 0.00 0.00 81 1008.4
20260905130152 67 346 3.0 11.0 0.00 0.00 0.00 82 1008.4
20260905130006 67 5 2.0 12.0 0.00 0.00 0.00 82 1008.2
20260905125858 66 55 2.0 12.0 0.00 0.00 0.00 83 1008.2
20260905124651 66 347 2.0 9.0 0.00 0.00 0.00 83 1008.1
20260905124151 66 28 2.0 10.0 0.00 0.00 0.00 84 1008.1
20260905123650 66 17 2.0 10.0 0.00 0.00 0.00 84 1008.1
20260905123150 65 325 2.0 10.0 0.00 0.00 0.00 85 1008.1
20260905123134 65 329 2.0 8.0 0.00 0.00 0.00 85 1008.1
20260905122149 65 29 2.0 9.0 0.00 0.00 0.00 85 1008.1
20260905121917 65 344 2.0 9.0 0.00 0.00 0.00 85 1008.1
20260905121147 65 5 1.0 9.0 0.00 0.00 0.00 86 1008.1
20260905120645 65 19 1.0 9.0 0.00 0.00 0.00 86 1008.1
20260905120145 64 326 1.0 6.0 0.00 0.00 0.00 86 1008.1
20260905115645 64 338 1.0 7.0 0.00 0.00 0.00 86 1008.1
20260905115144 64 355 1.0 8.0 0.00 0.00 0.00 87 1008.1
20260905114644 64 355 1.0 8.0 0.00 0.00 0.00 87 1008.1
20260905114144 64 350 1.0 6.0 0.00 0.00 0.00 87 1008.1
20260905113902 64 48 1.0 6.0 0.00 0.00 0.00 87 1008.1
20260905113144 64 307 0.0 5.0 0.00 0.00 0.00 87 1008.3
20260905112406 64 338 0.0 4.0 0.00 0.00 0.00 88 1008.3
20260905111906 63 332 0.0 2.0 0.00 0.00 0.00 88 1008.4
20260905111407 63 309 0.0 6.0 0.00 0.00 0.00 89 1008.3
20260905110905 63 309 1.0 6.0 0.00 0.00 0.00 89 1008.2
20260905110404 63 32 1.0 4.0 0.00 0.00 0.00 90 1007.8
20260905105900 63 349 1.0 4.0 0.00 0.00 0.00 90 1008.0
20260905105353 62 339 0.0 3.0 0.00 0.00 0.00 90 1008.0
20260905104848 62 338 0.0 2.0 0.00 0.00 0.00 90 1008.0
20260905104341 62 338 0.0 2.0 0.00 0.00 0.00 90 1008.0
20260905103836 62 337 0.0 2.0 0.00 0.00 0.00 90 1007.9
20260905103329 62 336 0.0 2.0 0.00 0.00 0.00 90 1007.9
20260905102824 62 337 0.0 1.0 0.00 0.00 0.00 90 1007.8
20260905102317 63 336 0.0 1.0 0.00 0.00 0.00 89 1007.8
20260905101811 63 336 0.0 1.0 0.00 0.00 0.00 90 1007.7
20260905101306 63 336 0.0 3.0 0.00 0.00 0.00 90 1007.7
20260905100801 63 336 0.0 3.0 0.00 0.00 0.00 90 1007.7
20260905100253 63 331 0.0 3.0 0.00 0.00 0.00 90 1007.6
20260905095748 62 342 0.0 2.0 0.00 0.00 0.00 91 1007.6
20260905095241 62 342 0.0 2.0 0.00 0.00 0.00 91 1007.6
20260905094735 62 341 0.0 1.0 0.00 0.00 0.00 92 1007.6
20260905094230 62 341 0.0 1.0 0.00 0.00 0.00 93 1007.5
20260905093945 61 340 0.0 1.0 0.00 0.00 0.00 93 1007.4
20260905093217 61 340 0.0 0.0 0.00 0.00 0.00 93 1007.4
20260905092711 61 340 0.0 1.0 0.00 0.00 0.00 93 1007.4
20260905092206 61 340 0.0 2.0 0.00 0.00 0.00 93 1007.3
20260905091659 61 340 0.0 2.0 0.00 0.00 0.00 93 1007.3
20260905091154 61 340 0.0 0.0 0.00 0.00 0.00 92 1007.3
20260905090911 61 340 0.0 0.0 0.00 0.00 0.00 92 1007.4
20260905090142 61 340 0.0 0.0 0.00 0.00 0.00 92 1007.4
20260905090114 61 340 0.0 0.0 0.00 0.00 0.00 92 1007.3
20260905085129 61 340 0.0 0.0 0.00 0.00 0.00 92 1007.3
20260905084629 62 340 0.0 0.0 0.00 0.00 0.00 92 1007.2
20260905084129 62 340 0.0 0.0 0.00 0.00 0.00 92 1007.1
20260905083625 62 340 0.0 0.0 0.00 0.00 0.00 92 1007.1
20260905083124 62 340 0.0 0.0 0.00 0.00 0.00 92 1007.2
20260905082621 61 340 0.0 0.0 0.00 0.00 0.00 92 1007.1
20260905082121 61 340 0.0 0.0 0.00 0.00 0.00 92 1007.1
20260905081623 62 340 0.0 0.0 0.00 0.00 0.00 92 1007.0
20260905081559 62 340 0.0 0.0 0.00 0.00 0.00 92 1007.0
20260905080619 62 340 0.0 0.0 0.00 0.00 0.00 92 1007.0
20260905080341 62 340 0.0 1.0 0.00 0.00 0.00 92 1007.0
20260905075619 62 340 0.0 1.0 0.00 0.00 0.00 92 1006.8
20260905075118 62 338 0.0 1.0 0.00 0.00 0.00 92 1006.7
20260905074615 62 338 0.0 2.0 0.00 0.00 0.00 92 1006.7
20260905074113 61 338 0.0 2.0 0.00 0.00 0.00 92 1006.7
20260905073611 61 337 0.0 2.0 0.00 0.00 0.00 92 1006.7
20260905073109 61 337 0.0 2.0 0.00 0.00 0.00 92 1006.7
20260905072608 61 16 0.0 2.0 0.00 0.00 0.00 92 1006.7
20260905072329 61 339 0.0 0.0 0.00 0.00 0.00 92 1006.7
20260905071830 62 339 0.0 0.0 0.00 0.00 0.00 92 1006.7
20260905071106 62 339 0.0 0.0 0.00 0.00 0.00 92 1006.7
20260905070600 62 339 0.0 1.0 0.00 0.00 0.00 92 1006.9
20260905070052 62 339 0.0 1.0 0.00 0.00 0.00 92 1006.9
20260905065545 62 340 0.0 1.0 0.00 0.00 0.00 92 1007.0
20260905065039 62 340 0.0 2.0 0.00 0.00 0.00 92 1007.0
20260905064535 62 340 0.0 2.0 0.00 0.00 0.00 93 1007.0
20260905064028 62 342 0.0 2.0 0.00 0.00 0.00 93 1007.0
20260905063521 62 343 0.0 2.0 0.00 0.00 0.00 92 1007.0
20260905063237 62 342 0.0 1.0 0.00 0.00 0.00 92 1006.9
20260905062509 62 342 0.0 1.0 0.00 0.00 0.00 92 1006.9
20260905062003 62 342 0.0 0.0 0.00 0.00 0.00 92 1006.9
20260905061457 62 342 0.0 1.0 0.00 0.00 0.00 92 1006.9
20260905060957 62 342 0.0 2.0 0.00 0.00 0.00 92 1006.9
20260905060942 62 342 0.0 2.0 0.00 0.00 0.00 93 1006.9
20260905055957 62 355 0.0 1.0 0.00 0.00 0.00 93 1007.0
20260905055453 62 355 0.0 1.0 0.00 0.00 0.00 92 1007.0
20260905054954 62 355 0.0 1.0 0.00 0.00 0.00 92 1007.0
20260905054453 62 344 0.0 1.0 0.00 0.00 0.00 92 1007.0
20260905053953 62 344 0.0 2.0 0.00 0.00 0.00 93 1007.0
20260905053455 61 342 0.0 2.0 0.00 0.00 0.00 92 1007.1
20260905052953 62 317 0.0 0.0 0.00 0.00 0.00 92 1007.0
20260905052453 62 317 0.0 1.0 0.00 0.00 0.00 92 1007.0
20260905051953 62 317 0.0 1.0 0.00 0.00 0.00 92 1006.9
20260905051935 62 316 0.0 0.0 0.00 0.00 0.00 92 1007.1
20260905050950 62 316 0.0 0.0 0.00 0.00 0.00 92 1007.1
20260905050931 62 316 0.0 0.0 0.00 0.00 0.00 92 1007.1
20260905045950 62 316 0.0 0.0 0.00 0.00 0.00 92 1007.1
20260905045449 62 316 0.0 0.0 0.00 0.00 0.00 92 1007.1
20260905045209 62 316 0.0 0.0 0.00 0.00 0.00 91 1007.1
20260905044918 63 316 0.0 0.0 0.00 0.00 0.00 91 1007.1
20260905044541 63 316 0.0 0.0 0.00 0.00 0.00 91 1007.2
20260905043449 63 316 0.0 0.0 0.00 0.00 0.00 91 1007.1
20260905043208 63 316 0.0 0.0 0.00 0.00 0.00 91 1007.1
20260905042702 63 316 0.0 0.0 0.00 0.00 0.00 90 1007.1
20260905042425 63 316 0.0 0.0 0.00 0.00 0.00 91 1007.1
20260905041705 63 316 0.0 0.0 0.00 0.00 0.00 90 1007.1
20260905040946 63 316 0.0 0.0 0.00 0.00 0.00 90 1007.2
20260905040446 64 316 0.0 0.0 0.00 0.00 0.00 90 1007.1
20260905040206 64 316 0.0 0.0 0.00 0.00 0.00 89 1007.2
20260905035446 64 316 0.0 0.0 0.00 0.00 0.00 89 1007.2
20260905034945 64 316 0.0 0.0 0.00 0.00 0.00 89 1007.1